SCP
1 1 1 1 1 1 1 1 1 1 0 0 0 0 0 0 0 0 0 0 0 0 0 0 0 0 0 0 0 0 0 0 0 0 0 0 0 0 0 0 0 0 0
1 1 0 0 1 1 1 1 1 1 0 0 0 0 0 0 0 0 0 0 0 0 0 0 0 0 0 0 0 0 0 0 0 0 0 0 0 0 0 0 0 0 0
0 0 -0 0 1 2 2 2 1 1 1 0 0 0 0 0 0 0 0 0 0 0 0 0 0 0 0 0 0 0 0 0 0 0 0 0 0 0 0 0 0 0 0
0 0 0 1 2 2 3 2 1 1 1 0 0 0 0 0 0 0 0 0 0 0 0 0 0 0 0 0 0 0 0 0 0 0 0 0 0 0 0 0 0 0 0
0 1 1 1 1 2 2 1 1 1 1 1 0 0 0 0 0 0 0 0 0 0 0 0 0 0 0 0 0 0 0 0 0 0 0 0 0 0 0 0 0 0 0
0 0 1 1 2 2 1 1 1 1 1 1 0 1 1 1 0 0 0 0 0 0 0 0 0 0 0 0 0 0 0 0 0 0 0 0 0 0 0 0 0 0 0
0 1 1 2 1 1 0 0 1 1 1 1 1 1 1 1 0 0 0 0 0 0 0 0 0 0 0 0 0 0 0 0 0 0 0 0 0 0 0 0 0 0 0
0 0 0 0 0 0 0 0 0 0 0 0 0 0 0 1 0 0 0 0 0 0 0 0 0 0 0 0 0 0 0 0 0 0 0 0 0 0 0 0 0 0 0
0 0 0 0 0 0 0 0 0 0 0 0 0 0 0 0 0 0 0 0 0 0 0 0 0 0 0 0 0 0 0 0 0 0 0 0 0 0 0 0 0 0 0
0 0 0 0 0 0 0 0 0 0 0 0 0 0 0 0 0 0 0 0 1 1 0 0 0 0 0 0 0 0 0 0 0 0 0 0 0 0 0 0 0 0 0
0 0 0 0 0 0 0 0 0 0 0 0 0 0 0 0 0 0 0 0 0 1 1 0 0 0 0 0 0 0 0 0 0 0 0 0 0 0 0 0 0 0 0
0 0 0 0 0 0 0 0 0 0 0 0 0 0 0 0 0 0 0 0 0 0 0 1 0 0 0 0 0 0 0 0 0 0 0 0 0 0 0 0 0 0 0
0 0 0 0 0 0 0 0 0 0 0 0 0 0 0 0 0 0 0 0 0 0 0 0 0 0 0 0 0 0 0 0 0 0 0 0 0 0 0 0 0 0 0
0 0 0 0 0 0 0 0 0 0 0 0 0 0 0 0 0 0 0 0 0 0 0 0 0 0 0 0 0 0 0 0 0 0 0 0 0 0 0 0 0 0 0
0 0 0 0 0 0 0 0 0 0 0 0 0 0 0 0 0 0 0 0 0 0 0 0 0 0 0 0 0 0 0 0 0 0 0 0 0 0 0 0 0 0 0
0 0 0 0 0 0 0 0 0 0 0 0 0 0 0 0 0 0 0 0 0 0 0 0 0 0 0 0 0 0 0 0 0 0 0 0 0 0 0 0 0 0 0
0 0 0 0 0 0 0 0 0 0 0 0 0 0 0 0 0 0 0 0 0 0 0 0 0 0 0 0 0 0 0 -0 -0 0 0 0 0 0 0 0 0 0 0
0 0 0 0 0 0 0 0 0 0 0 0 0 0 0 0 0 0 0 0 0 0 -0 -0 -0 0 0 0 0 -0 0 0 0 0 0 0 0 0 0 0 0 0 0
0 0 0 0 0 0 0 0 0 0 0 0 0 0 0 0 0 0 0 -0 0 0 -0 0 -0 -0 -0 -0 0 0 0 0 0 0 0 0 0 0 0 0 0 0 0
0 0 0 0 0 0 0 0 0 0 0 0 -0 -0 -0 0 0 -0 0 0 0 0 0 0 0 0 0 0 0 0 0 0 0 0 0 0 0 0 0 0 0 0 0
0 0 0 0 0 0 0 0 0 0 0 -0 -0 -0 -0 0 0 0 0 0 0 0 -0 -0 -0 0 0 0 0 0 0 0 0 0 0 0 0 0 0 0 0 0 -0
0 0 0 0 0 0 0 -0 0 0 0 0 0 0 0 0 0 -0 0 0 0 -0 -0 -0 -0 -0 -0 -0 -0 -0 -0 -0 0 0 0 0 0 0 0 -0 -0 0 0
0 0 -0 0 0 -0 0 -0 -0 -0 -0 0 0 0 0 -0 -0 0 0 0 0 0 -0 -0 -0 -0 -0 -0 -0 -0 0 -0 0 0 0 0 0 0 0 0 0 0 0
0 0 0 -0 0 0 -0 -0 -0 -0 -0 -0 -0 -0 -0 -0 0 0 0 -0 -0 -0 0 0 -0 -0 0 -0 -0 -0 -0 0 0 0 0 0 0 0 0 0 0 0 0
0 0 0 0 0 0 -0 -0 -0 0 0 -0 0 -0 -0 -0 0 0 0 0 0 0 -0 -0 0 0 0 -0 0 -0 -0 -0 -0 0 0 0 0 0 0 0 0 0 0
0 0 0 0 -0 0 0 0 0 -0 -0 -0 -0 -0 -0 -0 0 0 0 0 0 0 -0 0 0 0 0 0 0 0 -0 -0 0 0 0 0 0 0 0 0 0 0 0
Wind_Speed_500mb
19 14 12 13 15 23 28 32 36 40 37 37 28 33 38 38 37 40 40 40 42 42 41 43 40 39 40 36 37 37 35 32 33 27 25 27 34 33 37 41 34 24 22
19 17 12 24 31 35 40 39 41 46 44 37 35 36 39 43 46 44 42 44 43 44 43 46 45 43 44 48 43 44 43 41 36 33 35 32 35 38 38 32 27 22 20
40 29 33 41 47 40 42 39 40 42 40 41 31 28 30 30 31 39 43 47 50 49 52 49 48 44 51 48 53 49 51 46 47 50 49 38 42 41 43 40 32 27 27
49 9 7 32 37 33 32 33 38 37 39 35 33 35 33 34 33 35 42 48 55 58 55 56 54 52 51 55 56 60 59 63 57 54 56 47 45 45 44 40 33 32 26
11 16 19 28 31 26 28 29 29 30 32 33 39 43 42 39 36 34 37 43 43 44 52 52 54 53 56 62 60 60 65 67 64 63 61 52 48 49 42 35 33 34 29
11 23 18 18 25 31 29 24 25 27 25 25 24 22 24 28 29 35 40 43 44 43 37 40 52 49 57 57 62 56 64 62 71 68 67 59 51 43 35 33 31 32 26
27 24 26 26 29 30 25 28 30 25 20 21 20 21 22 23 27 33 38 45 49 49 42 35 31 37 42 51 57 58 47 53 57 59 70 54 44 28 30 31 32 38 34
21 26 30 31 31 30 27 23 20 27 29 38 31 31 36 39 35 36 43 41 44 49 47 47 48 56 51 46 47 52 50 48 45 46 50 44 30 27 32 33 25 19 28
25 26 28 28 26 25 27 34 38 36 34 35 37 41 40 45 41 50 56 51 42 41 44 46 46 48 41 45 49 47 52 45 43 44 42 35 35 39 35 28 14 28 27
23 26 27 27 27 31 38 40 34 38 38 43 39 42 48 51 43 47 43 44 50 50 52 51 46 37 40 49 49 53 48 41 51 47 41 37 36 33 32 27 24 24 25
20 19 22 21 21 26 26 24 30 37 41 43 48 51 49 48 47 44 44 46 47 49 45 50 47 46 46 47 54 49 41 46 45 40 39 33 35 32 30 31 29 26 24
22 25 24 25 26 27 30 37 41 47 53 52 53 56 54 55 52 49 48 49 44 48 48 48 48 49 52 52 51 53 40 34 40 44 38 33 28 30 29 30 29 28 28
21 21 23 25 30 37 40 40 40 47 50 47 46 48 48 43 50 50 47 44 48 47 49 49 48 55 51 42 37 38 42 49 43 38 30 26 28 27 28 33 33 31 35
20 22 28 31 33 40 44 46 43 42 49 49 45 44 46 49 47 38 44 50 44 41 45 47 49 45 37 31 31 35 36 39 35 29 25 22 23 29 35 29 27 29 31
32 31 31 32 38 47 49 47 51 52 53 53 50 48 51 51 44 50 50 52 52 45 44 45 41 35 26 29 31 33 38 30 20 26 23 22 22 27 28 29 30 27 27
43 42 38 42 43 47 53 54 60 55 59 61 59 53 55 52 47 50 49 45 37 35 40 39 34 31 28 38 37 32 22 21 24 23 21 20 21 24 26 33 30 32 31
50 48 46 50 48 50 55 57 55 57 64 68 52 51 54 49 50 56 47 43 33 32 28 26 24 31 21 20 20 25 22 21 29 23 15 13 13 13 15 19 22 25 26
43 46 48 46 50 50 55 60 61 60 59 55 50 46 48 44 55 51 39 27 22 22 12 10 9 17 22 24 29 22 19 17 15 10 10 11 12 12 12 14 17 20 22
43 43 50 47 49 52 47 41 43 46 49 42 46 49 56 49 41 30 15 4 5 3 17 14 17 25 24 10 7 15 17 12 9 9 10 12 15 9 9 11 17 19 20
47 58 60 51 38 37 38 43 43 44 48 49 50 44 33 22 15 13 3 9 25 22 32 28 16 4 4 8 10 9 9 6 6 9 12 12 10 5 6 7 11 14 15
58 47 44 37 30 35 47 48 50 55 49 39 39 27 15 9 8 6 24 40 41 38 34 29 23 22 20 17 11 5 2 6 7 5 5 3 0 0 5 6 8 11 10
38 32 31 24 23 34 43 39 35 36 35 27 19 6 8 21 31 28 32 45 40 34 30 24 19 14 10 7 6 6 4 2 2 1 2 4 13 16 16 15 14 13 13
24 19 15 11 23 28 26 32 32 28 27 22 17 17 36 49 46 42 39 27 30 28 26 25 24 20 16 11 8 5 5 5 6 3 17 22 21 19 17 16 19 18 16
18 11 8 15 33 31 40 45 45 47 51 52 47 54 52 54 35 18 20 28 25 25 25 26 27 27 24 17 14 11 8 8 18 34 31 28 31 30 29 22 15 14 9
9 7 10 30 21 25 27 28 40 50 51 47 41 31 16 12 13 18 22 20 20 19 22 26 29 31 26 19 17 13 20 32 40 41 34 31 29 27 25 22 21 19 18
8 10 19 23 21 17 15 17 20 22 21 17 15 16 20 20 18 18 17 14 14 14 18 23 27 31 25 20 18 21 31 33 33 31 26 21 18 14 11 13 14 13 10
Wind_Direction_500mb
225 245 261 274 269 282 294 296 299 294 294 296 288 291 288 277 266 268 266 265 259 257 253 252 251 251 252 251 255 254 248 243 248 246 240 251 260 247 259 263 263 279 274
256 258 303 306 289 281 285 290 291 292 292 281 283 285 291 284 268 263 262 265 265 262 259 252 253 252 253 257 252 256 254 255 251 249 247 264 263 262 260 257 260 266 265
283 279 307 286 279 283 285 283 288 287 288 286 287 292 295 301 290 276 268 262 262 263 259 255 251 252 253 254 251 252 252 250 247 249 254 263 261 261 251 259 248 260 267
268 348 260 279 279 287 287 289 289 287 288 285 281 280 281 283 283 284 280 276 265 261 255 253 253 254 258 255 255 260 248 248 248 246 252 256 257 250 255 245 254 245 252
315 344 319 301 303 304 305 296 291 291 286 281 281 283 282 282 288 290 293 292 282 279 270 259 256 258 268 259 260 265 257 254 247 243 252 247 248 247 256 249 241 253 262
2 346 336 331 315 306 296 287 292 297 295 288 290 293 294 289 293 294 295 291 287 282 277 266 267 263 271 266 263 264 266 258 249 244 246 244 251 255 248 233 252 247 239
348 335 323 315 313 306 293 292 294 292 298 302 301 301 300 303 311 306 297 288 282 279 275 274 282 293 283 274 271 268 263 265 256 252 251 243 250 233 233 243 253 262 243
332 326 320 314 300 303 296 302 313 325 312 317 304 310 310 309 308 319 317 303 292 279 270 272 274 273 277 289 272 268 260 253 250 253 239 242 220 227 231 249 239 237 242
334 326 318 313 311 306 301 301 316 305 303 296 299 302 301 291 294 300 298 303 296 295 290 281 274 276 280 277 278 272 261 256 243 233 229 213 209 228 241 239 231 240 243
316 313 309 305 305 309 310 316 318 315 315 307 304 309 297 307 303 299 289 292 286 287 291 296 286 284 295 288 273 268 268 259 228 217 205 207 218 234 235 231 225 227 239
324 332 333 332 335 336 337 339 336 334 329 318 311 310 307 304 300 307 310 298 291 291 283 285 293 286 289 289 287 262 251 240 215 207 201 209 227 218 227 220 224 222 228
337 337 335 335 334 332 328 326 328 329 322 317 313 312 306 300 296 294 297 293 291 283 283 287 287 281 283 274 269 265 246 227 200 194 203 214 215 213 216 226 229 226 224
331 331 330 326 320 316 315 315 315 323 322 315 310 310 313 315 311 299 287 283 289 281 285 291 295 292 284 271 253 228 210 203 198 202 202 215 214 216 216 227 228 229 229
330 322 316 316 319 316 307 308 307 312 318 315 310 312 311 315 314 309 296 285 281 287 289 289 288 281 281 267 226 216 210 190 201 195 208 216 209 219 225 221 220 227 231
294 297 307 307 307 311 305 301 302 305 318 312 310 308 310 310 312 309 306 294 284 286 290 292 287 279 263 233 214 203 198 188 182 215 219 210 217 223 220 223 221 223 233
281 287 290 295 297 301 301 298 302 302 302 311 308 301 306 303 311 309 301 308 291 281 288 292 296 263 253 223 200 194 196 201 230 230 231 232 228 232 229 243 232 231 234
279 291 289 290 294 299 302 303 305 307 310 314 306 302 305 292 311 326 299 300 290 288 305 298 290 260 211 213 196 176 177 200 229 242 222 220 223 230 237 221 222 220 220
282 285 289 297 303 306 305 303 302 304 309 313 313 311 312 298 311 310 311 297 290 302 303 291 244 196 176 155 177 194 225 202 172 184 218 234 250 246 229 221 216 217 223
289 296 302 307 310 311 316 315 311 306 307 307 309 310 315 308 310 315 311 355 316 77 138 115 104 107 118 142 214 176 172 180 195 225 244 253 255 242 220 208 219 204 204
299 303 307 310 315 317 316 318 317 314 313 310 312 314 314 331 342 22 45 139 114 96 91 104 88 43 79 116 127 146 155 174 232 257 264 265 257 167 185 201 219 235 236
304 306 304 312 312 314 319 321 321 319 319 316 316 304 317 339 354 138 124 109 97 91 91 93 95 94 95 101 104 112 260 274 273 262 266 264 246 162 151 153 151 148 137
309 312 314 317 320 325 329 335 335 331 327 317 324 8 39 114 114 111 114 113 98 88 80 80 79 77 71 59 51 47 56 53 315 26 47 93 109 113 113 111 113 113 113
317 329 341 350 358 1 11 10 12 28 35 51 65 93 120 112 106 100 104 99 96 83 76 74 66 55 40 24 9 22 68 87 87 93 116 109 105 104 106 106 108 113 117
348 354 25 49 76 65 55 57 63 66 75 83 92 101 98 102 99 85 98 107 90 81 68 58 47 32 24 28 38 53 58 90 120 115 109 107 107 102 100 103 104 112 106
353 35 91 112 86 77 69 69 66 66 66 74 76 69 42 41 75 98 115 101 78 75 57 43 35 26 31 42 54 61 108 115 115 117 113 107 99 95 87 89 96 104 118
45 97 117 109 93 77 61 49 46 45 48 44 32 23 71 92 102 109 114 96 67 56 41 31 27 25 34 48 62 102 119 120 122 120 115 108 89 87 89 82 90 93 105
Wind_Speed_850mb
19 14 12 13 15 23 28 32 36 40 37 37 28 33 38 38 37 40 40 40 42 42 41 43 40 39 40 36 37 37 35 32 33 27 25 27 34 33 37 41 34 24 22
19 17 12 24 31 35 40 39 41 46 44 37 35 36 39 43 46 44 42 44 43 44 43 46 45 43 44 48 43 44 43 41 36 33 35 32 35 38 38 32 27 22 20
40 29 33 41 47 40 42 39 40 42 40 41 31 28 30 30 31 39 43 47 50 49 52 49 48 44 51 48 53 49 51 46 47 50 49 38 42 41 43 40 32 27 27
49 9 7 32 37 33 32 33 38 37 39 35 33 35 33 34 33 35 42 48 55 58 55 56 54 52 51 55 56 60 59 63 57 54 56 47 45 45 44 40 33 32 26
11 16 19 28 31 26 28 29 29 30 32 33 39 43 42 39 36 34 37 43 43 44 52 52 54 53 56 62 60 60 65 67 64 63 61 52 48 49 42 35 33 34 29
11 23 18 18 25 31 29 24 25 27 25 25 24 22 24 28 29 35 40 43 44 43 37 40 52 49 57 57 62 56 64 62 71 68 67 59 51 43 35 33 31 32 26
27 24 26 26 29 30 25 28 30 25 20 21 20 21 22 23 27 33 38 45 49 49 42 35 31 37 42 51 57 58 47 53 57 59 70 54 44 28 30 31 32 38 34
21 26 30 31 31 30 27 23 20 27 29 38 31 31 36 39 35 36 43 41 44 49 47 47 48 56 51 46 47 52 50 48 45 46 50 44 30 27 32 33 25 19 28
25 26 28 28 26 25 27 34 38 36 34 35 37 41 40 45 41 50 56 51 42 41 44 46 46 48 41 45 49 47 52 45 43 44 42 35 35 39 35 28 14 28 27
23 26 27 27 27 31 38 40 34 38 38 43 39 42 48 51 43 47 43 44 50 50 52 51 46 37 40 49 49 53 48 41 51 47 41 37 36 33 32 27 24 24 25
20 19 22 21 21 26 26 24 30 37 41 43 48 51 49 48 47 44 44 46 47 49 45 50 47 46 46 47 54 49 41 46 45 40 39 33 35 32 30 31 29 26 24
22 25 24 25 26 27 30 37 41 47 53 52 53 56 54 55 52 49 48 49 44 48 48 48 48 49 52 52 51 53 40 34 40 44 38 33 28 30 29 30 29 28 28
21 21 23 25 30 37 40 40 40 47 50 47 46 48 48 43 50 50 47 44 48 47 49 49 48 55 51 42 37 38 42 49 43 38 30 26 28 27 28 33 33 31 35
20 22 28 31 33 40 44 46 43 42 49 49 45 44 46 49 47 38 44 50 44 41 45 47 49 45 37 31 31 35 36 39 35 29 25 22 23 29 35 29 27 29 31
32 31 31 32 38 47 49 47 51 52 53 53 50 48 51 51 44 50 50 52 52 45 44 45 41 35 26 29 31 33 38 30 20 26 23 22 22 27 28 29 30 27 27
43 42 38 42 43 47 53 54 60 55 59 61 59 53 55 52 47 50 49 45 37 35 40 39 34 31 28 38 37 32 22 21 24 23 21 20 21 24 26 33 30 32 31
50 48 46 50 48 50 55 57 55 57 64 68 52 51 54 49 50 56 47 43 33 32 28 26 24 31 21 20 20 25 22 21 29 23 15 13 13 13 15 19 22 25 26
43 46 48 46 50 50 55 60 61 60 59 55 50 46 48 44 55 51 39 27 22 22 12 10 9 17 22 24 29 22 19 17 15 10 10 11 12 12 12 14 17 20 22
43 43 50 47 49 52 47 41 43 46 49 42 46 49 56 49 41 30 15 4 5 3 17 14 17 25 24 10 7 15 17 12 9 9 10 12 15 9 9 11 17 19 20
47 58 60 51 38 37 38 43 43 44 48 49 50 44 33 22 15 13 3 9 25 22 32 28 16 4 4 8 10 9 9 6 6 9 12 12 10 5 6 7 11 14 15
58 47 44 37 30 35 47 48 50 55 49 39 39 27 15 9 8 6 24 40 41 38 34 29 23 22 20 17 11 5 2 6 7 5 5 3 0 0 5 6 8 11 10
38 32 31 24 23 34 43 39 35 36 35 27 19 6 8 21 31 28 32 45 40 34 30 24 19 14 10 7 6 6 4 2 2 1 2 4 13 16 16 15 14 13 13
24 19 15 11 23 28 26 32 32 28 27 22 17 17 36 49 46 42 39 27 30 28 26 25 24 20 16 11 8 5 5 5 6 3 17 22 21 19 17 16 19 18 16
18 11 8 15 33 31 40 45 45 47 51 52 47 54 52 54 35 18 20 28 25 25 25 26 27 27 24 17 14 11 8 8 18 34 31 28 31 30 29 22 15 14 9
9 7 10 30 21 25 27 28 40 50 51 47 41 31 16 12 13 18 22 20 20 19 22 26 29 31 26 19 17 13 20 32 40 41 34 31 29 27 25 22 21 19 18
8 10 19 23 21 17 15 17 20 22 21 17 15 16 20 20 18 18 17 14 14 14 18 23 27 31 25 20 18 21 31 33 33 31 26 21 18 14 11 13 14 13 10
Wind_Direction_850mb
225 245 261 274 269 282 294 296 299 294 294 296 288 291 288 277 266 268 266 265 259 257 253 252 251 251 252 251 255 254 248 243 248 246 240 251 260 247 259 263 263 279 274
256 258 303 306 289 281 285 290 291 292 292 281 283 285 291 284 268 263 262 265 265 262 259 252 253 252 253 257 252 256 254 255 251 249 247 264 263 262 260 257 260 266 265
283 279 307 286 279 283 285 283 288 287 288 286 287 292 295 301 290 276 268 262 262 263 259 255 251 252 253 254 251 252 252 250 247 249 254 263 261 261 251 259 248 260 267
268 348 260 279 279 287 287 289 289 287 288 285 281 280 281 283 283 284 280 276 265 261 255 253 253 254 258 255 255 260 248 248 248 246 252 256 257 250 255 245 254 245 252
315 344 319 301 303 304 305 296 291 291 286 281 281 283 282 282 288 290 293 292 282 279 270 259 256 258 268 259 260 265 257 254 247 243 252 247 248 247 256 249 241 253 262
2 346 336 331 315 306 296 287 292 297 295 288 290 293 294 289 293 294 295 291 287 282 277 266 267 263 271 266 263 264 266 258 249 244 246 244 251 255 248 233 252 247 239
348 335 323 315 313 306 293 292 294 292 298 302 301 301 300 303 311 306 297 288 282 279 275 274 282 293 283 274 271 268 263 265 256 252 251 243 250 233 233 243 253 262 243
332 326 320 314 300 303 296 302 313 325 312 317 304 310 310 309 308 319 317 303 292 279 270 272 274 273 277 289 272 268 260 253 250 253 239 242 220 227 231 249 239 237 242
334 326 318 313 311 306 301 301 316 305 303 296 299 302 301 291 294 300 298 303 296 295 290 281 274 276 280 277 278 272 261 256 243 233 229 213 209 228 241 239 231 240 243
316 313 309 305 305 309 310 316 318 315 315 307 304 309 297 307 303 299 289 292 286 287 291 296 286 284 295 288 273 268 268 259 228 217 205 207 218 234 235 231 225 227 239
324 332 333 332 335 336 337 339 336 334 329 318 311 310 307 304 300 307 310 298 291 291 283 285 293 286 289 289 287 262 251 240 215 207 201 209 227 218 227 220 224 222 228
337 337 335 335 334 332 328 326 328 329 322 317 313 312 306 300 296 294 297 293 291 283 283 287 287 281 283 274 269 265 246 227 200 194 203 214 215 213 216 226 229 226 224
331 331 330 326 320 316 315 315 315 323 322 315 310 310 313 315 311 299 287 283 289 281 285 291 295 292 284 271 253 228 210 203 198 202 202 215 214 216 216 227 228 229 229
330 322 316 316 319 316 307 308 307 312 318 315 310 312 311 315 314 309 296 285 281 287 289 289 288 281 281 267 226 216 210 190 201 195 208 216 209 219 225 221 220 227 231
294 297 307 307 307 311 305 301 302 305 318 312 310 308 310 310 312 309 306 294 284 286 290 292 287 279 263 233 214 203 198 188 182 215 219 210 217 223 220 223 221 223 233
281 287 290 295 297 301 301 298 302 302 302 311 308 301 306 303 311 309 301 308 291 281 288 292 296 263 253 223 200 194 196 201 230 230 231 232 228 232 229 243 232 231 234
279 291 289 290 294 299 302 303 305 307 310 314 306 302 305 292 311 326 299 300 290 288 305 298 290 260 211 213 196 176 177 200 229 242 222 220 223 230 237 221 222 220 220
282 285 289 297 303 306 305 303 302 304 309 313 313 311 312 298 311 310 311 297 290 302 303 291 244 196 176 155 177 194 225 202 172 184 218 234 250 246 229 221 216 217 223
289 296 302 307 310 311 316 315 311 306 307 307 309 310 315 308 310 315 311 355 316 77 138 115 104 107 118 142 214 176 172 180 195 225 244 253 255 242 220 208 219 204 204
299 303 307 310 315 317 316 318 317 314 313 310 312 314 314 331 342 22 45 139 114 96 91 104 88 43 79 116 127 146 155 174 232 257 264 265 257 167 185 201 219 235 236
304 306 304 312 312 314 319 321 321 319 319 316 316 304 317 339 354 138 124 109 97 91 91 93 95 94 95 101 104 112 260 274 273 262 266 264 246 162 151 153 151 148 137
309 312 314 317 320 325 329 335 335 331 327 317 324 8 39 114 114 111 114 113 98 88 80 80 79 77 71 59 51 47 56 53 315 26 47 93 109 113 113 111 113 113 113
317 329 341 350 358 1 11 10 12 28 35 51 65 93 120 112 106 100 104 99 96 83 76 74 66 55 40 24 9 22 68 87 87 93 116 109 105 104 106 106 108 113 117
348 354 25 49 76 65 55 57 63 66 75 83 92 101 98 102 99 85 98 107 90 81 68 58 47 32 24 28 38 53 58 90 120 115 109 107 107 102 100 103 104 112 106
353 35 91 112 86 77 69 69 66 66 66 74 76 69 42 41 75 98 115 101 78 75 57 43 35 26 31 42 54 61 108 115 115 117 113 107 99 95 87 89 96 104 118
45 97 117 109 93 77 61 49 46 45 48 44 32 23 71 92 102 109 114 96 67 56 41 31 27 25 34 48 62 102 119 120 122 120 115 108 89 87 89 82 90 93 105